Bola Tangkas

Jackpot

Texas Poker Multi Jackpot System

Kini Telah hadir Jackpot SUPER ROYAL FLUSH

Kini Telah hadir Jackpot 2000 (khusus table VIP keatas).

Ikutilah global jackpot yang tersedia di system kami, dengan system jackpot terbaru dan pertama di indonesia, anda dapat membeli jackpot dengan harga 100 rupiah saja dan menangkan hadiahnya hingga puluhan juta rupiah.

Jackpot bukanlah suatu keharusan untuk dibeli, namun kami memberikan suatu fitur tambahan untuk member tercinta dari www.999naga.net.

Terdapat tiga pilihan harga jackpot yang bisa anda beli yaitu :100,500,1000 dan 2000(khusus table VIP Keatas) rupiah.

Hadiah dari Multi jackpot system www.999naga.net

  1. full house x 10 harga jackpot yang anda beli.
      (contoh:anda membeli 1000 maka:1000 X10 = 10.000)
  2. four of kind x 250 harga jackpot yang anda beli
      (contoh:anda membeli 1000 maka:1000 X250 = 250.000)
  3. Straight flush x 1200
      (contoh:anda membeli 1000 maka:1000 X1200 = 1.200.000)
  4. Royal flush x 10000 harga jackpot yang anda beli
      (contoh:anda membeli 1000 maka:1000 X10000 = 10.000.000)
  5. SUPER ROYAL FLUSH x 30000 harga jackpot yang anda beli
      (contoh:anda membeli 1000 maka:1000 X30000 = 30.000.000)

Kondisi kartu

  1. full house adalah kondisi kartu dimana kartu anda dan kartu tengah dengan total 7 kartu bisa mendapatkan nilai 5 kartu dengan kombinasi 1 tris(three of kind) dan 1 pair, contoh 3 kartu 10 dan 2 kartu 5
  2. Four of kind adalah kondisi kartu dimana kartu anda dan kartu tengah dengan total 7 kartu bisa mendapatkan nilai 5 kartu dengan kombinasi 4 kartu yang sama jumlah dan 1 kartu apapun juga contoh anda mendapatkan 4 buah kartu angka 3 dan 1 kartu apapun.
  3. Staright flush adalah kondisi kartu dimana kartu anda dan kartu tengah dengan total 7 kartu bisa mendapatkan nilai 5 kartu dengan kombinasi seri / staright dengan kembang yang sama contoh : urutan kartu dari angka 5, 6, 7, 8 , 9 10 dengan kembang yg sama misalnya as hati
  4. Royal flush adalah kondisi kartu dimana kartu anda dan kartu tengah dengan total 7 kartu bisa mendapatkan nilai 5 kartu dengan kombinasi seri / staright dengan kembang yang sama tetapi kartu tersebut haruslah dimulai dari 10. contoh 10, Queen, Jack, King dan aces dengan kembang yang sama
  5. Super Royal flush adalah kondisi kartu dimana Kedua kartu anda digabung dengan 3 kartu pertama meja haruslah royal flush. contoh kartu anda 10,Queen kembang sama dan 3 kartu pertama meja adalah Jack, King dan aces dengan kembang yang sama

Demikian adalah penjelasan dari Multi Jackpot www.999naga.net terima kasih dan selamat bermain salam hoki dari kami

Texas Poker Jackpot Winner

TOP SUPER ROYAL FLUSH
No.TanggalNamaPriceWin
125/09 05:30B365CA9ASuper Royal flush6,000,000
225/09 00:17N0AH16Super Royal flush3,000,000
324/09 23:12SAF99Super Royal flush1,500,000
424/09 16:34OPPOF9Super Royal flush30,000,000
524/09 14:33ALL19Super Royal flush6,000,000
TOP ROYAL FLUSH
No.TanggalNamaPriceWin
125/09 04:58RODABERPUTRoyal flush2,000,000
225/09 04:19ALVINO102Royal flush5,000,000
325/09 04:02RESBON88Royal flush2,000,000
425/09 03:54M4RT3L_888Royal flush2,000,000
525/09 03:53ABENK77Royal flush10,000,000
TOP STRAIGHT FLUSH
No.TanggalNamaPriceWin
125/09 05:50TOMMY2017Straight Flush240,000
225/09 05:49PADIL1Straight Flush240,000
325/09 05:47UL1995Straight Flush600,000
425/09 05:43ED793E0DStraight Flush120,000
525/09 05:37PEGO11Straight Flush240,000
LATEST JACKPOT
No.TanggalNamaPriceWin
125/09 05:52DONGMINFull House20,000
225/09 05:52S3MP4KK6RBFull House10,000
325/09 05:52DOVAN_99Full House5,000
425/09 05:52DIGONXFull House2,000
525/09 05:52JUNS0818Full House2,000
625/09 05:52PLAYERDUAFull House5,000
725/09 05:52JUNAAFull House5,000
825/09 05:52SIMBAN_1XFull House5,000
925/09 05:52BT4DFN91Full House500
1025/09 05:52B47N8888724Full House5,000
1125/09 05:52ATEN888Full House2,000
1225/09 05:52HOLANA99Full House2,000
1325/09 05:52FR_7465Full House20,000
1425/09 05:51JEANING7Full House2,000
1525/09 05:51KUSNO001Full House1,000
1625/09 05:51JELES123Four Of A Kind50,000
1725/09 05:51PB8888Full House2,000
1825/09 05:51OWGHT07Full House5,000
1925/09 05:51RHIRI31Full House2,000
2025/09 05:51W1N3R99Full House10,000
2125/09 05:51MARC0BARFull House5,000
2225/09 05:51COKERBUKITFull House5,000
2325/09 05:51F81A31B4Full House1,000
2425/09 05:51MARIOHALLOFull House2,000
2525/09 05:51SLANG86Full House2,000
2625/09 05:51GUDALJARANFull House20,000
2725/09 05:51VGI1HARRYSWFull House500
2825/09 05:51ASEPCELLFull House1,000
2925/09 05:51SUPAAT55Full House2,000
3025/09 05:51RANDYANSAHFull House1,000
3125/09 05:51A1854CEEFull House2,000
3225/09 05:51XZEMPAK21Full House500
3325/09 05:51MMAFull House500
3425/09 05:51REVERBEFull House5,000
3525/09 05:51FADIL1Full House5,000
3625/09 05:51UBFL77KJOQFull House5,000
3725/09 05:51WLGSHM6CN0Full House2,000
3825/09 05:51FDAA52F9Full House5,000
3925/09 05:51ZIONIC2Full House2,000
4025/09 05:51BORNEO1221Full House2,000
4125/09 05:51ADHIKA855Full House5,000
4225/09 05:51ADUHOKI07Full House5,000
4325/09 05:51DANNY30Full House1,000
4425/09 05:51SI4DI_88Full House2,000
4525/09 05:51YAYAH8899Full House2,000
4625/09 05:51ARJUNA075Full House2,000
4725/09 05:51TEBO_88SFull House2,000
4825/09 05:51ALDEBARAN1Four Of A Kind125,000
4925/09 05:51IONAXXYXR1Full House5,000
5025/09 05:51JAMAN07Full House2,000

Domino Multi Jackpot System

Ikutilah global jackpot yang tersedia di system kami, dengan system jackpot terbaru dan pertama di indonesia, anda dapat membeli jackpot dengan harga 100 rupiah saja dan menangkan hadiahnya hingga puluhan juta rupiah.

Jackpot bukanlah suatu keharusan untuk dibeli, namun kami memberikan suatu fitur tambahan untuk member tercinta dari www.999naga.net.

Terdapat tiga pilihan harga jackpot yang bisa anda beli yaitu :100,500 dan 1000 rupiah.

Hadiah dari Multi jackpot system www.999naga.net

  1. Murni Kecil x 50 harga jackpot yang anda beli.
      (contoh:anda membeli 1000 maka:1000 X 50 = 50.000)
  2. Murni Besar x 50 harga jackpot yang anda beli
      (contoh:anda membeli 1000 maka:1000 X 50 = 50.000)
  3. BALAK x 100 harga jackpot yang anda beli
      (contoh:anda membeli 1000 maka:1000 X 100 = 100.000)
  4. ENAM DEWA x 6666 harga jackpot yang anda beli
      (contoh:anda membeli 1000 maka:1000 X 6666 = 6.666.000)

Demikian adalah penjelasan dari Multi Jackpot www.999naga.net terima kasih dan selamat bermain salam hoki dari kami

Domino Jackpot Winner

TOP ENAM DEWA
No.TanggalNamaPriceWin
125/09 03:00TEMPUYAK90murni enam3,333,000
225/09 02:56MULLAHmurni enam3,333,000
324/09 23:14SUTRIS80murni enam666,600
424/09 22:52LAELADEWImurni enam3,333,000
524/09 22:36DODOR21murni enam666,600
TOP BALAK
No.TanggalNamaPriceWin
125/09 05:45BAOT99TROSbalak10,000
225/09 05:42RANDYANSAHbalak10,000
325/09 05:39RRAY17balak10,000
425/09 05:38AFIATA312balak10,000
525/09 05:37DED3112balak100,000
LATEST JACKPOT
No.TanggalNamaPriceWin
125/09 05:51ARYA133murni besar25,000
225/09 05:48CEMPLUNDmurni kecil50,000
325/09 05:48TOP747murni kecil5,000
425/09 05:45BAOT99TROSbalak10,000
525/09 05:45KUBU013murni besar5,000
625/09 05:45ARWA666murni besar5,000
725/09 05:44DHAR_JHOmurni kecil50,000
825/09 05:42RANDYANSAHbalak10,000
925/09 05:40SURAHMAN25murni kecil50,000
1025/09 05:40LADINDA07murni kecil25,000
1125/09 05:39RRAY17balak10,000
1225/09 05:39ANDHI23murni besar50,000
1325/09 05:38AFIATA312balak10,000
1425/09 05:37BRAHEEM789murni kecil5,000
1525/09 05:37DED3112balak100,000
1625/09 05:37ASHI13murni besar50,000
1725/09 05:36A0AA5519murni besar5,000
1825/09 05:35GUGUNJEKlucky992,500
1925/09 05:33C7DD0A5Emurni besar5,000
2025/09 05:32DB88D314lucky992,500
2125/09 05:31BENTENG6murni besar50,000
2225/09 05:28CIPUY78murni kecil50,000
2325/09 05:28ODOYHENGmurni besar25,000
2425/09 05:27DEJAVU910murni besar50,000
2525/09 05:27DANI7511balak10,000
2625/09 05:24CEMPLUNDmurni kecil50,000
2725/09 05:24P4LL4K4murni besar25,000
2825/09 05:23SURAHMAN25murni kecil50,000
2925/09 05:23ARIWPG76BDbalak50,000
3025/09 05:22KATON07murni besar50,000
3125/09 05:20WAWE87murni kecil5,000
3225/09 05:19HARIANSYAHmurni besar50,000
3325/09 05:19AMPETZ9lucky9925,000
3425/09 05:19HARIANSYAHmurni besar50,000
3525/09 05:19BRONTAK24lucky992,500
3625/09 05:18LADINDA07murni besar25,000
3725/09 05:16FXTE5D86GUmurni kecil50,000
3825/09 05:16KOTATUA99lucky9910,000
3925/09 05:15PIT99murni besar50,000
4025/09 05:13JAILQQmurni besar50,000
4125/09 05:12C1CD4EDFmurni kecil5,000
4225/09 05:10CIPUY78murni besar50,000
4325/09 05:09HENDRY8486murni kecil5,000
4425/09 05:09ARSEL31murni besar50,000
4525/09 05:08BSWY9EFOPTbalak50,000
4625/09 05:08ANTU99murni kecil25,000
4725/09 05:08ROBERTA79murni besar50,000
4825/09 05:08YRNF4KXNI6murni besar50,000
4925/09 05:07TASYA96murni besar50,000
5025/09 05:04DEWON121murni besar50,000

Ceme Multi Jackpot System

Jackpot dilihat dari gabungan kartu pemain dengan kartu bandar. Bandar harus membeli jackpot sebanyak jumlah player yang sedang duduk. Sebagai contoh bila terdapat 3 pemain duduk bermain, dan bandar memutuskan untuk membeli jackpot Rp 1.000, maka pada periode tersebut bandar akan membeli jackpot sebanyak 3xRp1.000 = Rp3.000.

Jackpot bukanlah suatu keharusan untuk dibeli, namun kami memberikan suatu fitur tambahan untuk member tercinta dari www.999naga.net.

Terdapat tiga pilihan harga jackpot yang bisa anda beli yaitu :100,500 dan 1000 rupiah.

Hadiah dari Multi jackpot system www.999naga.net

  1. Murni Kecil x 50 harga jackpot yang anda beli.
      (contoh:anda membeli 1000 maka:1000 X 50 = 50.000)
  2. Murni Besar x 50 harga jackpot yang anda beli
      (contoh:anda membeli 1000 maka:1000 X 50 = 50.000)
  3. BALAK x 200 harga jackpot yang anda beli
      (contoh:anda membeli 1000 maka:1000 X 200 = 200.000)
  4. ENAM DEWA x 6666 harga jackpot yang anda beli
      (contoh:anda membeli 1000 maka:1000 X 6666 = 6.666.000)

Demikian adalah penjelasan dari Multi Jackpot www.999naga.net terima kasih dan selamat bermain salam hoki dari kami

Ceme Jackpot Winner

TOP ENAM DEWA
No.TanggalNamaPriceWin
125/09 04:54VEGARR1993murni enam6,666,000
225/09 03:38ADO002murni enam6,666,000
325/09 03:37TOGIWDmurni enam666,600
425/09 03:28BOJEZ168murni enam6,666,000
525/09 03:28SOBARI888murni enam666,600
TOP BALAK
No.TanggalNamaPriceWin
125/09 05:51BENDRObalak20,000
225/09 05:51ZAGATbalak20,000
325/09 05:50G484Nbalak200,000
425/09 05:50QIUTOTbalak200,000
525/09 05:50BULL_77balak200,000
LATEST JACKPOT
No.TanggalNamaPriceWin
125/09 05:52AGAS12murni besar50,000
225/09 05:52BILLY_NGOKmurni besar50,000
325/09 05:51BENDRObalak20,000
425/09 05:51ZAGATbalak20,000
525/09 05:51SOGLO22murni kecil5,000
625/09 05:51RHIMOmurni kecil5,000
725/09 05:51SOGLO22murni kecil5,000
825/09 05:51RODEO76murni kecil25,000
925/09 05:51CHOKY02murni kecil5,000
1025/09 05:51BASOSOLO1murni besar50,000
1125/09 05:51SKYCIPUTmurni besar25,000
1225/09 05:51DONDRAY8murni besar25,000
1325/09 05:50G484Nbalak200,000
1425/09 05:50QIUTOTbalak200,000
1525/09 05:50PUKY889murni kecil50,000
1625/09 05:50TOTHYmurni kecil50,000
1725/09 05:50JUAND412murni kecil25,000
1825/09 05:50RIZKY0988murni kecil50,000
1925/09 05:50BULL_77balak200,000
2025/09 05:50JULIANDRO7murni kecil50,000
2125/09 05:50MADAM_JHmurni kecil50,000
2225/09 05:50KARMILA201balak200,000
2325/09 05:50KOMENGAJAbalak200,000
2425/09 05:49YULIE90balak20,000
2525/09 05:49G484Nmurni kecil50,000
2625/09 05:49DREI89murni kecil50,000
2725/09 05:48CB77FENDImurni kecil25,000
2825/09 05:48JAGURDUK1997murni kecil5,000
2925/09 05:48KIRANA303balak100,000
3025/09 05:48BILLY_NGOKbalak200,000
3125/09 05:48RAMADI14balak100,000
3225/09 05:48BILLY_NGOKbalak200,000
3325/09 05:48A53IZ23murni kecil50,000
3425/09 05:48A70JI015382balak100,000
3525/09 05:48GEBOY38murni besar5,000
3625/09 05:48CHOKY02murni besar5,000
3725/09 05:47FRIN80murni besar50,000
3825/09 05:47IAP06murni kecil50,000
3925/09 05:47DERS168murni besar50,000
4025/09 05:47YOUHIL75murni besar50,000
4125/09 05:47KIRANA303murni kecil25,000
4225/09 05:47YEFRISONKmurni kecil5,000
4325/09 05:47MADHAN123murni kecil25,000
4425/09 05:46RIVARIAmurni kecil50,000
4525/09 05:46HUSINCBDmurni besar5,000
4625/09 05:46LUKE704murni besar50,000
4725/09 05:46VEGARR1993murni besar50,000
4825/09 05:46PUTRI3107murni besar5,000
4925/09 05:46P3MAUmurni besar5,000
5025/09 05:46DEDENHOKI5murni besar50,000